Location: Starlight Observatory
(38.4029°N, 85.8936°W)
Time: 22:20:13
(UTC-04:00)

Iridium 62 - Visible Passes

Search period start: 02 September 2014 00:00
Search period end: 12 September 2014 00:00
Orbit: 776 x 779 km, 86.4° (Epoch: 02 September)

Date Brightness Start Highest point End Pass type
(mag) Time Alt. Az. Time Alt. Az. Time Alt. Az.
02 Sep 5.8 22:07:11 49° SE 22:08:22 63° E 22:13:31 10° N visible
02 Sep 8.4 23:47:37 11° W 23:49:32 14° WNW 23:52:05 10° NW visible
03 Sep 6.5 21:33:17 27° ESE 21:34:59 33° E 21:39:37 10° NNE visible
03 Sep 7.7 23:13:43 20° WSW 23:15:42 25° W 23:19:58 10° NNW visible
04 Sep 7.2 20:59:18 14° ESE 21:01:43 18° E 21:05:10 10° NE visible
04 Sep 6.7 22:39:44 29° SW 22:42:00 47° W 22:47:01 10° N visible
05 Sep 5.7 22:05:40 29° S 22:08:25 88° W 22:13:40 10° N visible
06 Sep 6.0 21:31:29 19° SSE 21:34:58 49° E 21:39:58 10° NNE visible
06 Sep 8.3 23:12:33 10° WSW 23:15:58 17° WNW 23:19:23 10° NW visible
07 Sep 6.8 20:57:23 10° SE 21:01:38 26° E 21:05:54 10° NNE visible
07 Sep 7.4 22:37:34 10° SW 22:42:11 32° W 22:46:49 10° NNW visible
08 Sep 7.5 20:25:49 10° ESE 20:28:25 14° ENE 20:31:02 10° NE visible
08 Sep 6.3 22:03:24 10° SSW 22:08:32 60° W 22:13:41 10° N visible
09 Sep 5.7 21:29:50 10° S 21:35:00 72° E 21:40:12 10° N visible
09 Sep 8.7 23:14:26 10° W 23:16:16 12° WNW 23:18:06 10° NW visible
10 Sep 6.3 20:56:50 10° SSE 21:01:36 38° E 21:06:22 10° NNE visible
10 Sep 8.1 22:38:24 10° SW 22:42:24 22° WNW 22:46:26 10° NNW visible
11 Sep 7.1 20:24:33 10° SE 20:28:18 21° E 20:32:04 10° NE visible
11 Sep 7.0 22:03:48 10° SSW 22:08:40 41° W 22:13:35 10° NNW visible
